TimePST,TemperatureF,Dew PointF,Humidity,Sea Level PressureIn,VisibilityMPH,Wind Direction,Wind SpeedMPH,Gust SpeedMPH,PrecipitationIn,Events,Conditions,WindDirDegrees,DateUTC
12:54 AM,48.9,43.0,80,29.94,10.0,SE,9.2,-,N/A,,Overcast,140,2012-11-09 08:54:00
1:45 AM,48.2,42.8,82,29.91,8.0,NE,6.9,23.0,0.00,Rain-Thunderstorm,Light Thunderstorms and Rain,50,2012-11-09 09:45:00
1:54 AM,50.0,43.0,77,29.94,10.0,Variable,4.6,-,0.00,Rain,Light Rain,0,2012-11-09 09:54:00
2:07 AM,48.2,42.8,82,29.90,10.0,SSE,4.6,-,0.00,,Overcast,150,2012-11-09 10:07:00
2:18 AM,48.2,42.8,82,29.90,10.0,SE,5.8,-,0.00,,Overcast,140,2012-11-09 10:18:00
2:51 AM,48.2,44.6,87,29.90,10.0,ESE,5.8,-,0.00,,Overcast,120,2012-11-09 10:51:00
2:54 AM,48.0,44.1,86,29.93,10.0,ESE,8.1,-,0.00,,Overcast,120,2012-11-09 10:54:00
3:20 AM,46.4,42.8,87,29.90,2.5,North,8.1,23.0,0.10,Rain,Light Rain,10,2012-11-09 11:20:00
3:24 AM,46.4,42.8,87,29.90,9.0,NNE,5.8,-,0.10,Rain,Light Rain,20,2012-11-09 11:24:00
3:43 AM,46.4,42.8,87,29.90,10.0,NE,3.5,-,0.10,,Mostly Cloudy,40,2012-11-09 11:43:00
3:54 AM,46.9,43.0,86,29.93,10.0,East,4.6,-,0.10,,Mostly Cloudy,80,2012-11-09 11:54:00
4:54 AM,45.0,42.1,90,29.94,10.0,North,3.5,-,N/A,,Partly Cloudy,350,2012-11-09 12:54:00
5:54 AM,45.0,43.0,93,29.95,10.0,Calm,Calm,-,N/A,,Scattered Clouds,0,2012-11-09 13:54:00
6:54 AM,44.1,41.0,89,29.96,10.0,ENE,4.6,-,N/A,,Clear,60,2012-11-09 14:54:00
7:54 AM,46.0,42.1,86,29.97,10.0,ENE,5.8,-,N/A,,Clear,70,2012-11-09 15:54:00
8:54 AM,50.0,43.0,77,29.98,10.0,East,3.5,-,N/A,,Clear,90,2012-11-09 16:54:00
9:54 AM,52.0,43.0,71,29.99,10.0,Variable,3.5,-,N/A,,Clear,0,2012-11-09 17:54:00
10:54 AM,53.1,41.0,64,29.99,10.0,WNW,4.6,-,N/A,,Scattered Clouds,300,2012-11-09 18:54:00
11:54 AM,54.0,39.9,59,29.98,10.0,West,6.9,-,N/A,,Scattered Clouds,270,2012-11-09 19:54:00
12:54 PM,55.9,39.9,55,29.96,10.0,West,9.2,-,N/A,,Scattered Clouds,270,2012-11-09 20:54:00
1:54 PM,55.9,39.0,53,29.96,10.0,WNW,11.5,-,N/A,,Scattered Clouds,290,2012-11-09 21:54:00
2:54 PM,57.0,37.9,49,29.96,10.0,WNW,13.8,-,N/A,,Clear,290,2012-11-09 22:54:00
3:54 PM,55.0,39.0,55,29.96,10.0,WNW,11.5,-,N/A,,Clear,290,2012-11-09 23:54:00
4:54 PM,53.1,37.9,57,29.97,10.0,WNW,11.5,-,N/A,,Clear,290,2012-11-10 00:54:00
5:54 PM,52.0,39.9,63,29.98,10.0,WNW,9.2,-,N/A,,Clear,290,2012-11-10 01:54:00
6:54 PM,52.0,39.9,63,29.99,10.0,WNW,9.2,-,N/A,,Clear,300,2012-11-10 02:54:00
7:54 PM,52.0,41.0,66,30.00,10.0,WNW,8.1,-,N/A,,Partly Cloudy,300,2012-11-10 03:54:00
8:54 PM,51.1,42.1,71,30.01,10.0,NW,5.8,-,N/A,,Mostly Cloudy,310,2012-11-10 04:54:00
9:54 PM,51.1,41.0,68,30.02,10.0,NW,6.9,-,N/A,,Mostly Cloudy,310,2012-11-10 05:54:00
10:21 PM,50.0,41.0,71,29.99,10.0,NW,5.8,-,N/A,,Mostly Cloudy,310,2012-11-10 06:21:00
10:54 PM,50.0,39.9,68,30.02,10.0,NNW,4.6,-,N/A,,Scattered Clouds,340,2012-11-10 06:54:00
11:13 PM,50.0,41.0,71,29.99,10.0,NW,3.5,-,N/A,,Mostly Cloudy,320,2012-11-10 07:13:00
11:37 PM,48.2,39.2,71,29.99,10.0,Calm,Calm,-,N/A,,Partly Cloudy,0,2012-11-10 07:37:00
11:54 PM,48.0,39.9,74,30.02,10.0,Calm,Calm,-,N/A,,Partly Cloudy,0,2012-11-10 07:54:00